Find Kosmos-1363

NORAD ID: 13166 Int'l Des: 1982-040 Owner: GUKOS Country: SU operational
LEOCIRCULAR

当前视图

正在加载3D地球...

关于 Kosmos-1363

正在加载描述...

即将过境

Passes for default location (London). Set your location on the main map for personalized predictions.

高度历史

Loading altitude history...

两行轨道根数

1 13166U 82040G 26151.21964919 .00000014 00000-0 21140-3 0 9993
2 13166 74.0106 208.3862 0018859 99.0446 318.6207 12.44161801 1410
Epoch: May 31, 2026 • Age: 7 hours

当前状态

高度 1495.2 km
速度 7.12 km/s
星下点 -12.99°S, 33.99°W
发射日期 May 6, 1982
运行时间 44 years
类型 other

技术详情

分类 Payload
质量 60.00 kg
干质量 60.00 kg
总质量 60.00 kg
长度 0.80 m
直径 0.80 m
跨度 0.80 m
形状 Poly
制造商 NPOPM
平台类型 Strela-1 11F625
阶段状态 In Orbit
所有者/国家 GUKOS/SU

Most Searched